Location: Beccas
(43.4309°N, 0.1528°E)
Time: 13:20:12
(UTC+00:00)

Cosmos 1703 - Pass Details

Date: 24 May 2022
Orbit: 518 x 535 km, 82.5° (Epoch: 03 July)

Event Time Altitude Azimuth Distance (km) Brightness Sun altitude
Exits shadow 01:59:27 13° 135° (SE) 1,604 5.5 -19.9°
Maximum altitude 02:01:57 23° 89° (E) 1,187 5.3 -19.6°
Drops below altitude 10° 02:05:03 10° 37° (NE) 1,797 7.2 -19.3°
Sets 02:07:32 0° 22° (NNE) 2,691 8.4 -19.1°
